Terminal Aerodrome Forecast
Issued by NWS

Home | Current Version | Previous Version | Text Only | Print | Product List | Glossary On
Versions: 1 2 3 4 5 6 7 8 9 10 11 12
000
FTUS46 KSTO 302300
TAFRBL
TAF
KRBL 302326Z 3100/3124 15010KT P6SM SCT250
     FM310500 33007KT P6SM FEW250
     FM311600 35010KT P6SM SKC=

USA.gov is the U.S. government's official web portal to all federal, state and local government web resources and services.